Location: Home
(42.5358°N, 72.7383°W)
Time: 16:41:19
(UTC-04:00)

Kosmos-337 - Pass Details

Date: 11 July 2022
Orbit: 1467 x 1552 km, 74.0° (Epoch: 18 August)

Event Time Altitude Azimuth Distance (km) Brightness Sun altitude
Rises 00:52:53 0° 339° (NNW) 4,730 ? -25.4°
Reaches altitude 10° 00:55:52 10° 340° (NNW) 3,740 ? -25.4°
Maximum altitude 01:05:04 89° 70° (ENE) 1,540 ? -25.3°
Enters shadow 01:08:56 41° 161° (SSE) 2,103 ? -25.3°
